This is the latest recevied weather packets stored in our database for station/object EA2KR-10. If no packets are shown the sender has not sent any weather packets the latest 10 day(s).
| Time | Temp. | Humidity | Pressure | Rain* | Wind** | Luminosity | Snow |
|---|---|---|---|---|---|---|---|
| 1778074854 | 17.78° C | 53% | 1023.9 hPa | - | - | - | - |
| 1778073053 | 18.33° C | 54% | 1023.9 hPa | - | - | - | - |
| 1778071253 | 18.33° C | 56% | 1023.8 hPa | - | - | - | - |
| 1778069453 | 18.89° C | 52% | 1023.8 hPa | - | - | - | - |
| 1778067653 | 17.78° C | 55% | 1024 hPa | - | - | - | - |
| 1778065853 | 15.56° C | 57% | 1024 hPa | - | - | - | - |
| 1778064053 | 15.56° C | 59% | 1024 hPa | - | - | - | - |
| 1778062253 | 13.89° C | 61% | 1024 hPa | - | - | - | - |
| 1778060453 | 13.33° C | 64% | 1024 hPa | - | - | - | - |
| 1778058653 | 12.78° C | 62% | 1023.8 hPa | - | - | - | - |
| 1778056852 | 13.33° C | 64% | 1023.7 hPa | - | - | - | - |
| 1778055052 | 14.44° C | 64% | 1023.5 hPa | - | - | - | - |
| 1778053252 | 12.78° C | 65% | 1023.6 hPa | - | - | - | - |
| 1778051452 | 12.22° C | 65% | 1023.5 hPa | - | - | - | - |
| 1778049652 | 11.11° C | 67% | 1023.5 hPa | - | - | - | - |
| 1778047852 | 10.56° C | 68% | 1023.3 hPa | - | - | - | - |
| 1778046052 | 10° C | 68% | 1023.1 hPa | - | - | - | - |
| 1778044252 | 10.56° C | 68% | 1023.2 hPa | - | - | - | - |
| 1778042452 | 10° C | 68% | 1023.1 hPa | - | - | - | - |
| 1778040651 | 10° C | 68% | 1023 hPa | - | - | - | - |
| 1778038853 | 10° C | 68% | 1023.1 hPa | - | - | - | - |
| 1778037053 | 10° C | 68% | 1023.1 hPa | - | - | - | - |
| 1778035253 | 9.44° C | 68% | 1023.1 hPa | - | - | - | - |
| 1778033453 | 10.56° C | 67% | 1023.1 hPa | - | - | - | - |
| 1778031653 | 10° C | 68% | 1023.2 hPa | - | - | - | - |
* Rain since midnight (hover to see other rain measurements)
** Current wind speed in m/s (hover to see current wind gust speed)